210  
ASUS42 KFFC 240403  
RWRGA  
WEATHER ROUNDUP FOR GEORGIA  
NATIONAL WEATHER SERVICE PEACHTREE CITY GA  
1200 AM EDT TUE OCT 24 2017  
 
NOTE: "FAIR" INDICATES FEW OR NO CLOUDS BELOW 12,000 FEET WITH NO  
SIGNIFICANT WEATHER AND/OR S TO VISIBILITY
.  
 
* = USE WITH CAUTION. THE STATIONS MARKED WITH AN ASTERISK MAY NOT  
REPORT WEATHER SUCH AS PRECIPITATION, FOG, OR THUNDER AND ARE NOT  
QUALITY CONTROLLED BY NWS.  
 
THE REMARK "TC" DENOTES TEMPERATURE READING IN DEGREES CELSIUS.  
 
GAZ001>058-240500-  
NORTH GEORGIA  
 
CITY SKY/WX TMP DP RH WIND PRES REMARKS
 
ATLANTA PTCLDY 55 52 89 W10 29.97R  
ATHENS CLEAR 58 51 78 W7 29.93R  
CHAMBLEE PTCLDY 55 49 80 W13 29.97R  
PEACHTREE CITY CLEAR 56 52 86 NW7 29.99R  
ROME CLEAR 54 53 97 CALM 29.98R  
WEST ATLANTA CLEAR 55 52 89 W7 29.97S  
GAINESVILLE MOCLDY 56 50 80 W13G21 29.95R  
CARTERSVILLE CLEAR 53 53 100 CALM 29.98R  
 
 
CITY SKY/WX TMP DP RH WIND PRES REMARKS
 
DALTON* CLEAR 52 50 93 CALM 29.99R  
LAWRENCEVILLE* PTCLDY 57 50 77 W8 N/A  
MARIETTA CLEAR 54 50 88 W9 29.96S  
KENNESAW* PTCLDY 55 51 86 W8 29.98R  
CANTON* CLEAR 54 54 100 W3 29.98R  

 
 
GAZ059>098-102>109-240500-  
CENTRAL GEORGIA  
 
CITY SKY/WX TMP DP RH WIND PRES REMARKS
 
AUGUSTA-BUSH CLEAR 62 58 86 W8 29.91F  
AUGUSTA-DANIEL CLEAR 64 56 75 VRB3 29.92S  
COLUMBUS CLEAR 58 52 80 NW3 29.98S  
MACON CLEAR 57 53 86 W8 29.97R  
ROBINS AFB CLEAR 59 52 79 NW7 29.96R  
 
 
CITY SKY/WX TMP DP RH WIND PRES REMARKS
 
LAGRANGE* CLEAR 56 55 97 CALM 29.99S  
SYLVANIA* CLEAR 65 64 98 NW6 29.92S  

 
 
GAZ099>101-110>166-240500-  
SOUTH GEORGIA  
 
CITY SKY/WX TMP DP RH WIND PRES REMARKS
 
SAVANNAH PTCLDY 70 68 93 W7 29.90F  
VALDOSTA CLEAR 60 58 92 CALM 29.95R  
ALMA MOCLDY 66 58 75 NW6 29.93S  
ST SIMONS CLEAR 74 73 97 SW14 29.90F  
FT STEWART CLEAR 68 64 86 NW6 29.89F  
ALBANY CLEAR 60 55 83 NW6 30.00R  
HUNTER AFB CLEAR 70 67 91 W3 29.87F  
BRUNSWICK MOCLDY 72 70 94 SW8 29.91F  
 
 
CITY SKY/WX TMP DP RH WIND PRES REMARKS
 
BAINBRIDGE* CLEAR 63 57 82 NW5 29.99R  
MOULTRIE* CLEAR 63 55 77 NW6 29.97S  
VIDALIA* CLEAR 63 57 82 NW5 29.94S  
WAYCROSS* PTCLDY 67 60 78 NW5 29.93S  
DOUGLAS* PTCLDY 64 54 68 N6 29.95F  

 
 
 
CLICK HERE TO GO TO PREVIOUS BULLETINS.

The Nexlab GA Page Main Text Page